Notices

What's New in latest Release from April 7th, 2021:

- Updated Glossary, including Speed of Maximum Gust, and Total Hourly Precipitation

- Updated national and regional climate services offices contacts and prices information

- Addition of station inventory lists for 1981-2010, 1971-2000, and 1961-1990 Normals.

If you haven't already, please take our survey and provide feedback about our website: https://eccc.sondage-survey.ca/f/LanguageSelection.aspx?s=442ca660-fcf1-47c0-95a9-59707d6fd709

Hourly Data Report for April 28, 2016

MIRAMICHI RCS
NEW BRUNSWICK

47°00'34.000" N
65°27'54.000" W
33.00 m
8100989
71744
ACQ

Download Data

Hourly Data (April 2016)
Hourly Data Report for April 28, 2016
TIME
LST
Temp Definition
°C
Dew Point Definition
°C
Rel Hum Definition
%
Precip. Amount Definition
mm

Wind Dir Definition
10's deg

Wind Spd Definition
km/h
Visibility Definition
km
Stn Press Definition
kPa
Hmdx Definition


Wind Chill Definition


Weather Definition


00:00 -3.0 -5.0 87 0.0 36 11   100.80   -7 LegendNANA
01:00 -3.0 -5.8 81 0.0 1 5   100.72   -5 LegendNANA
02:00 -3.4 -6.4 79 0.0 28 5   100.70   -5 LegendNANA
03:00 -3.3 -8.0 70 0.0 30 6   100.71   -6 LegendNANA
04:00 -3.6 -8.4 69 0.0 30 5   100.69   -6 LegendNANA
05:00 -4.4 -8.4 74 0.0 30 5   100.73   -7 LegendNANA
06:00 -4.3 -8.7 71 0.0 28 8   100.81   -8 LegendNANA
07:00 -3.1 -8.6 66 0.0 28 14   100.84   -8 LegendNANA
08:00 -2.1 -10.1 54 0.0 32 16   100.87   -7 LegendNANA
09:00 -1.6 -11.6 46 0.0 31 17   100.90   -7 LegendNANA
10:00 -0.1 -12.6 38 0.0 29 20   100.93   -5 LegendNANA
11:00 -0.1 -15.2 31 0.0 31 21   100.95   -6 LegendNANA
12:00 1.3 -15.0 29 0.0 28 25   101.00     LegendNANA
13:00 1.6 -15.0 28 0.0 30 21   101.00     LegendNANA
14:00 2.3 -15.0 27 0.0 31 19   100.99     LegendNANA
15:00 3.7 -14.6 25 0.0 31 18   101.01     LegendNANA
16:00 3.6 -15.6 23 0.0 31 17   101.05     LegendNANA
17:00 3.5 -15.7 23 0.0 29 21   101.11     LegendNANA
18:00 3.2 -15.8 23 0.0 30 19   101.20     LegendNANA
19:00 2.4 -14.9 27 0.0 31 14   101.30     LegendNANA
20:00 1.1 -14.5 30 0.0 30 12   101.41     LegendNANA
21:00 -0.1 -13.7 35 0.0 28 12   101.49   -4 LegendNANA
22:00 -1.1 -13.2 39 0.0 26 10   101.52   -5 LegendNANA
23:00 -1.3 -12.6 42 0.0 26 12   101.53   -5 LegendNANA

Notes on Data Quality.

Legend

  • E = Estimated
  • M = Missing
  • NA = Not Available*
  • [empty] = Indicates an unobserved value
Date modified: